Regional Weather Roundup
Issued by NWS

Home | Current Version | Previous Version | Text Only | Print | Product List | Glossary Off
Versions: 1 2 3 4 5 6 7 8 9 10 11 12 13 14 15 16 17 18 19 20 21 22 23 24 25 26 27 28 29 30 31 32 33 34 35 36 37 38 39 40 41 42 43 44 45 46 47 48 49 50

000
ASUS43 KLSX 210459
RWRMO

WEATHER SUMMARY FOR MISSOURI
NATIONAL WEATHER SERVICE SPRINGFIELD MO
1200 AM CDT THU AUG 21 2014

NOTE: "FAIR" INDICATES FEW OR NO CLOUDS BELOW 12,000 FEET WITH NO
       SIGNIFICANT WEATHER AND/OR OBSTRUCTIONS TO VISIBILITY.
       CURRENT SKY AND/OR WEATHER CONDITIONS ARE NOT AVAILABLE FOR
       CHILLICOTHE AND FARMINGTON.

MOZ001>031-035>038-043-044-053-054-210600-
...NORTHERN AND WESTERN MISSOURI...

CITY           SKY/WX    TMP DP  RH WIND       PRES   REMARKS
KANSAS CTY INT CLEAR     81  68  64 S14       29.90R
KANSAS C DTWN  CLEAR     84  67  56 S14       29.89R
LEE`S SUMMIT   CLEAR     80  66  62 S10       29.92R
ST JOSEPH      CLEAR     80  69  69 S10       29.87R
KIRKSVILLE     CLEAR     78  72  81 S8        29.92R

$$
MOZ066>068-077>081-088>096-101>105-210600-
...SOUTHWEST MISSOURI...

CITY           SKY/WX    TMP DP  RH WIND       PRES   REMARKS
SPRINGFIELD    CLEAR     78  64  61 S12       29.99S
JOPLIN         CLEAR     80  67  64 S15       29.96R

$$
MOZ032>034-039>042-045>050-055>058-069>072-210600-
...CENTRAL MISSOURI...

CITY           SKY/WX    TMP DP  RH WIND       PRES   REMARKS
COLUMBIA       CLEAR     73  71  93 SE8       29.96R
JEFFERSON CITY CLEAR     74  71  91 SE3       29.94S
ROLLA          CLEAR     75  65  70 S9        29.98R
SEDALIA        CLEAR     80  66  62 S12       29.95R
OSAGE BEACH    CLEAR     77  66  69 S6        29.97R

$$
MOZ051-052-059>065-210600-
...EAST CENTRAL MISSOURI...

CITY           SKY/WX    TMP DP  RH WIND       PRES   REMARKS
ST LOUIS INTL  PTCLDY    76  72  87 E6        29.96F
SPIRIT OF STL  PTCLDY    72  71  97 CALM      29.95F
ST CHARLES     PTCLDY    72  70  93 E5        29.95F

$$
MOZ072>076-082>087-097>100-106>115-210600-
...SOUTH CENTRAL AND SOUTHEAST MISSOURI...

CITY           SKY/WX    TMP DP  RH WIND       PRES   REMARKS
CAPE GIRARDEAU CLOUDY    81  74  79 S10       30.00S
FARMINGTON     CLOUDY    79  73  83 S6        30.02S
POPLAR BLUFF   CLOUDY    79  71  76 SW6       29.99S
WEST PLAINS    PTCLDY    81  63  54 S8        30.05R

$$


USA.gov is the U.S. government's official web portal to all federal, state and local government web resources and services.